Regional Weather Roundup
Issued by NWS Cleveland, OH

Home | Current Version | Previous Version | Text Only | Print | Product List | Glossary Off
Versions: 1 2 3 4 5 6 7 8 9 10 11 12 13 14 15 16 17 18 19 20 21 22 23 24 25 26 27 28 29 30 31 32 33 34 35 36 37 38 39 40 41 42 43 44 45 46 47 48 49 50

000
ASUS41 KCLE 011610
RWRCLE
OHIO REGIONAL WEATHER ROUNDUP
NATIONAL WEATHER SERVICE WILMINGTON, OH
1100 AM EST SUN FEB 01 2015

NOTE: "FAIR" INDICATES FEW OR NO CLOUDS BELOW 12,000 FEET WITH NO
SIGNIFICANT WEATHER AND/OR OBSTRUCTIONS TO VISIBILITY.

OHZ001>008-015>018-024>027-034-035-043-044-011700-
   NORTHWEST OHIO

CITY           SKY/WX    TMP DP  RH WIND       PRES   REMARKS
DEFIANCE       LGT SNOW  29  26  89 E14G22    29.99F VSB 3/4 WCI  18
FINDLAY        SNOW      33  31  92 E10       29.97F VSB 1/2 WCI  25
TOLEDO EXPRESS LGT SNOW  25  22  88 E15G26    30.03F VSB 1   WCI  13
TOLEDO EXEC    LGT SNOW  27  23  85 NE13      30.05F VSB 1   WCI  16
LIMA           CLOUDY    35  31  85 E10       29.93F FOG     WCI  27
$$

OHZ009>014-019>023-028>033-038-089-011700-
   NORTHEAST OHIO

CITY           SKY/WX    TMP DP  RH WIND       PRES   REMARKS
CLE-HOPKINS    LGT SNOW  30  28  92 SE6       30.11F VSB 3/4 WCI  24
CLE-LAKEFRONT  LGT SNOW  31  29  92 E3        30.09F VSB 3/4
CUY CO. ARPT   LGT SNOW  32  30  93 E7        30.10F VSB 1   WCI  26
LORAIN-ELYRIA  SNOW      30  28  92 SE8       30.06F VSB 1/2 WCI  22
ASHTABULA      LGT SNOW  27  25  92 E7        30.12F FOG     WCI  19
AKRON-CANTON   SNOW      30  27  88 S8        30.07F VSB 1/2 WCI  22
WOOSTER        LGT SNOW  30  28  92 SE8       30.06F VSB 3/4 WCI  22
MANSFIELD      LGT SNOW  31  29  92 SE9       30.02F VSB 3/4 WCI  23
YOUNGSTOWN     LGT SNOW  28  26  92 S5        30.10F VSB 3/4 WCI  23
$$

OHZ042-051>053-060>062-070>072-077>081-011700-
  SOUTHWEST OHIO

CITY           SKY/WX    TMP DP  RH WIND       PRES   REMARKS
CINC-COVINGTON CLOUDY    41  24  51 SE16      29.90F
CINC-LUNKEN    CLOUDY    42  24  49 SE9       29.94F
HAMILTON       CLOUDY    40  30  67 E8        29.93F
DAYTON         LGT RAIN  35  32  88 SE10      29.93F WCI  27
WRIGHT-PAT AFB LGT RAIN  35  32  89 E7        29.93F WCI  29
DAYTON GENERAL CLOUDY    37  31  78 SE10      29.92F
WILMINGTON     CLOUDY    36  26  67 SE13G22   29.94F
$$

OHZ036-037-039>041-045>050-054>059-063>069-073>076-082>088-011700-
  CENTRAL AND SOUTHEAST OHIO

CITY           SKY/WX    TMP DP  RH WIND       PRES   REMARKS
COLUMBUS       CLOUDY    33  31  92 E12       29.99F WCI  24
OSU AIRPORT    LGT SNOW  33  31  92 E14       29.97F FOG     WCI  23
BOLTON FIELD   CLOUDY    32  32 100 E13       29.99F FOG     WCI  22
RICKENBACK AFB CLOUDY    33  32  96 E12       29.99F WCI  24
NEWARK         LGT RAIN  33  31  92 E8        30.02F FOG     WCI  26
MARION         CLOUDY    32  30  92 SE14      29.99F FOG     WCI  22
LANCASTER      CLOUDY    34  32  92 SE9       30.01F WCI  27
ZANESVILLE     LGT SNOW  31  29  92 E8        30.06F FOG     WCI  23
NEW PHILLY     LGT SNOW  31  28  89 SE5       30.10F FOG     WCI  26
$$


USA.gov is the U.S. government's official web portal to all federal, state and local government web resources and services.